Location: *
(37.9500°N, 27.3666°E)
Time: 02:30:14
(UTC+00:00)

BlueWalker 3 - Visible Passes

Search period start: 14 April 2024 00:00
Search period end: 24 April 2024 00:00
Orbit: 485 x 496 km, 53.2° (Epoch: 13 April)

Date Brightness Start Highest point End Pass type
(mag) Time Alt. Az. Time Alt. Az. Time Alt. Az.
14 Apr 5.2 00:23:38 10° N 00:24:17 10° NNE 00:25:05 10° NNE visible
14 Apr 3.6 02:00:00 10° NNW 02:03:30 33° NE 02:07:00 10° E visible
15 Apr 3.7 01:35:31 10° NNW 01:39:00 32° NE 01:42:27 10° E visible
15 Apr 3.3 18:33:42 10° SSW 18:35:30 26° SSW 18:35:30 26° SSW visible
16 Apr 3.7 01:12:28 19° NNW 01:14:28 31° NNE 01:17:54 10° E visible
16 Apr 2.6 02:49:16 10° WNW 02:52:41 32° SW 02:56:05 10° SSE visible
16 Apr 2.0 18:09:12 10° SSW 18:12:54 52° SE 18:14:53 24° ENE visible
16 Apr 4.7 19:48:17 10° W 19:49:30 16° WNW 19:49:30 16° WNW visible
17 Apr 3.9 00:50:35 28° NE 00:50:35 28° NE 00:53:20 10° E visible
17 Apr 2.5 02:25:09 13° WNW 02:28:11 33° SW 02:31:38 10° SSE visible
17 Apr 2.1 17:44:42 10° SSW 17:48:22 49° SE 17:52:05 10° ENE visible
17 Apr 4.2 19:23:41 10° W 19:26:48 23° NNW 19:28:15 19° N visible
18 Apr 2.5 02:04:04 34° SSW 02:04:04 34° SSW 02:07:09 10° SSE visible
18 Apr 2.2 17:20:12 10° SSW 17:23:51 46° SE 17:27:31 10° ENE visible
18 Apr 4.2 18:59:05 10° W 19:02:14 24° NNW 19:05:25 10° NNE visible
19 Apr 4.2 18:34:27 10° W 18:37:39 25° NNW 18:40:53 10° NNE visible
20 Apr 4.1 18:09:49 10° W 18:13:05 26° NNW 18:16:20 10° NNE visible
21 Apr 4.1 17:45:11 10° W 17:48:28 27° NNW 17:51:47 10° NNE visible
22 Apr 4.0 17:20:31 10° W 17:23:52 28° NNW 17:27:13 10° NNE visible
